Location: Amherst
(42.5000°N, 72.5000°W)
Time: 14:44:57

ISS - Pass Details

Date: 14 March 2018
Orbit: 403 x 406 km, 51.6° (Epoch: 21 March)

Event Time Altitude Azimuth Distance (km) Brightness Sun altitude
Exits shadow 06:30:29 - 307° (NW) 1,984 -0.8 -7.0°
Reaches altitude 10° 06:31:46 10° 311° (NW) 1,466 -1.4 -6.7°
Maximum altitude 06:35:00 54° 29° (NNE) 500 -3.1 -6.1°
Drops below altitude 10° 06:38:12 10° 109° (ESE) 1,457 0.4 -5.5°
Sets 06:40:19 0° 114° (ESE) 2,313 1.4 -5.1°
